Weather History for Kos, Greece

Change the Weather History Date:

Monday, December 10, 2012

  Actual Average Record
Temperature  
Mean Temperature 52 °F -  
Max Temperature 53 °F 56 °F 66 °F (2006)
Min Temperature 50 °F 48 °F 44 °F (1998)
Degree Days  
Heating Degree Days 14    
Growing Degree Days 2 (Base 50)    
Moisture  
Dew Point 45 °F    
Average Humidity 81    
Maximum Humidity 94    
Minimum Humidity 58    
Precipitation  
Precipitation 0.00 in - - ()
Sea Level Pressure  
Sea Level Pressure 29.64 in    
Wind  
Wind Speed 7 mph ()    
Max Wind Speed 17 mph    
Max Gust Speed 22 mph    
Visibility 6.1 miles    
Events Rain , Thunderstorm    
Averages and records for this station are not official NWS values.
T = Trace of Precipitation, MM = Missing Value Source: Averaged Metar Reports

Daily Weather History Graph

Daily Weather History Graph

Search for Another Location

Airport:

Trip Planner

Search our weather history database for the weather conditions in past years. The results will help you decide how hot, cold, wet, or windy it might be!

Date:

Astronomy

Dec. 10, 2012 Rise Set
Actual Time 7:13 AM EET 4:55 PM EET
Civil Twilight 6:44 AM EET 5:24 PM EET
Nautical Twilight 6:12 AM EET 5:56 PM EET
Astronomical Twilight 5:40 AM EET 6:28 PM EET
Moon 3:37 AM EET (12/10) 2:27 PM EET (12/10)
Length of Visible Light 10h 39m
Length of Day
9h 41m
Waning Crescent, 12% of the Moon is Illuminated
Dec 10
Waning Crescent
Dec 13
New
Dec 20
First Quarter
Dec 28
Full
Jan 5
Last Quarter

Hourly Weather History & Observations

Time (EET) Temp. Dew Point Humidity Pressure Visibility Wind Dir Wind Speed Gust Speed Precip Events Conditions
12:50 AM 53.6 °F 50.0 °F 88% 29.71 in 6.2 mi West 5.8 mph - N/A Rain Light Rain
1:50 AM 51.8 °F 48.2 °F 88% 29.68 in 6.2 mi West 5.8 mph - N/A Rain Rain
2:50 AM 51.8 °F 48.2 °F 88% 29.68 in 6.2 mi SSE 5.8 mph - N/A Rain Light Rain
3:50 AM 51.8 °F 48.2 °F 88% 29.65 in 6.2 mi South 10.4 mph - N/A   Mostly Cloudy
4:50 AM 53.6 °F 46.4 °F 77% 29.62 in 6.2 mi South 6.9 mph - N/A Rain Light Rain
5:20 AM 53.6 °F 46.4 °F 77% 29.62 in 6.2 mi SSW 6.9 mph - N/A Rain Rain
5:50 AM 53.6 °F 48.2 °F 82% 29.62 in 3.7 mi SSW 8.1 mph - N/A Rain Heavy Rain
6:20 AM 51.8 °F 50.0 °F 94% 29.62 in 6.2 mi WNW 10.4 mph - N/A Rain Light Rain
6:50 AM 50.0 °F 48.2 °F 94% 29.59 in 6.2 mi NNW 4.6 mph - N/A Rain Rain
7:20 AM 50.0 °F 48.2 °F 94% 29.59 in 5.6 mi West 4.6 mph - N/A Rain Rain
7:50 AM 50.0 °F 48.2 °F 94% 29.62 in 6.2 mi Variable 3.5 mph - N/A Rain Rain
8:20 AM 50.0 °F 48.2 °F 94% 29.62 in 6.2 mi Variable 3.5 mph - N/A Rain Rain
8:50 AM 50.0 °F 48.2 °F 94% 29.59 in 6.2 mi Variable 3.5 mph - N/A Rain Light Rain
9:20 AM 50.0 °F 48.2 °F 94% 29.59 in 6.2 mi ESE 4.6 mph - N/A Rain Rain
9:50 AM 51.8 °F 48.2 °F 88% 29.59 in 4.3 mi East 3.5 mph - N/A Rain Rain
10:20 AM 51.8 °F 48.2 °F 88% 29.59 in - North - - N/A Rain , Thunderstorm Thunderstorms and Rain
10:50 AM 50.0 °F 46.4 °F 87% 29.59 in 6.2 mi East 5.8 mph - N/A Rain Light Rain
11:20 AM 50.0 °F 46.4 °F 87% 29.59 in 6.2 mi ENE 5.8 mph - N/A   Overcast
11:50 AM 50.0 °F 44.6 °F 82% 29.59 in 6.2 mi East 4.6 mph - N/A Rain Light Rain
12:20 PM 50.0 °F 44.6 °F 82% 29.59 in 6.2 mi South 4.6 mph - N/A Rain Rain
12:50 PM 50.0 °F 46.4 °F 87% 29.59 in 6.2 mi South 3.5 mph - N/A Rain Rain
1:20 PM 50.0 °F 46.4 °F 87% 29.59 in 6.2 mi NNW 4.6 mph - N/A Rain Rain
1:50 PM 50.0 °F 46.4 °F 87% 29.59 in 6.2 mi NNW 5.8 mph - N/A   Mostly Cloudy
2:20 PM 50.0 °F 46.4 °F 87% 29.59 in 6.2 mi North 13.8 mph - N/A   Mostly Cloudy
2:50 PM 51.8 °F 46.4 °F 82% 29.59 in 6.2 mi North 5.8 mph - N/A   Mostly Cloudy
3:20 PM 51.8 °F 46.4 °F 82% 29.59 in 6.2 mi North 8.1 mph - N/A Rain Light Rain
3:50 PM 51.8 °F 46.4 °F 82% 29.62 in 6.2 mi North 9.2 mph - N/A   Mostly Cloudy
4:20 PM 51.8 °F 46.4 °F 82% 29.62 in 6.2 mi North 10.4 mph 21.9 mph N/A   Mostly Cloudy
4:50 PM 51.8 °F 44.6 °F 76% 29.65 in 6.2 mi NNW 11.5 mph - N/A   Mostly Cloudy
5:20 PM 51.8 °F 44.6 °F 76% 29.65 in 6.2 mi NW 12.7 mph - N/A   Mostly Cloudy
5:50 PM 50.0 °F 44.6 °F 82% 29.68 in 6.2 mi NNW 10.4 mph - N/A Rain Rain
6:20 PM 50.0 °F 44.6 °F 82% 29.68 in 6.2 mi NNW 8.1 mph - N/A   Mostly Cloudy
6:50 PM 51.8 °F 39.2 °F 62% 29.71 in 6.2 mi NW 12.7 mph - N/A   Mostly Cloudy
7:20 PM 51.8 °F 39.2 °F 62% 29.71 in 6.2 mi NW 12.7 mph - N/A   Mostly Cloudy
7:50 PM 51.8 °F 39.2 °F 62% 29.74 in 6.2 mi WNW 15.0 mph - N/A   Mostly Cloudy
8:50 PM 51.8 °F 39.2 °F 62% 29.74 in 6.2 mi NW 15.0 mph - N/A   Mostly Cloudy
9:50 PM 51.8 °F 37.4 °F 58% 29.77 in 6.2 mi NW 17.3 mph - N/A   Mostly Cloudy
10:50 PM 51.8 °F 37.4 °F 58% 29.77 in 6.2 mi NW 17.3 mph - N/A   Scattered Clouds
11:50 PM 51.8 °F 37.4 °F 58% 29.80 in 6.2 mi NW 11.5 mph - N/A   Scattered Clouds